パンスターズ彗星

C/2015 X5 ( PanSTARRS )

English version
Home page
Updated on May 22, 2017

---------------------------------------------------------------------

・ プロフィール

発見日 2015年12月6日
発見光度 21.3等
発見者 Pan-STARRS 1 telescope (Haleakala)

・ 写真集

・ 軌道要素

Epoch 2018 Jan. 2.0 TT = JDT 2458120.5
T 2017 Dec. 31.00970 TT                                 MPCW
q   6.8018475            (2000.0)            P               Q
z  -0.0004858      Peri.   27.75018     -0.25138571     +0.67027991
 +/-0.0000011      Node   122.31454     +0.66184702     -0.40733601
e   1.0033044      Incl.  124.29083     +0.70623208     +0.62032429
From 109 observations 2015 Dec. 6-2017 Feb. 25, mean residual 0".4.

・ 光度変化

        m1 = 7.0 + 5 logΔ + 10.0 log r

---------------------------------------------------------------------

軌道要素はM.P.E.C. 2017-E59に掲載されたものです。
光度グラフはComet for Windowsで作成したものです。

---------------------------------------------------------------------

Copyright(C) Seiichi Yoshida (comet@aerith.net). All rights reserved.